Weather in Novovoroncovka

Ukraine / Kherson District     47°30′17″N   33°55′23″E
temp.,
°C
wind,
m/s
gust,
m/s
humid.,
%
clouds,
%
prec.,
mm/h
press.,
hPa
HPBL,
m
14 june, mon
mon1400:00+19sw57704 0.0 1009344
03:00+19s45765 0.0 1009355
06:00+19sse56815 0.0 1009332
09:00+22se45634 0.0 1010728
12:00+25ese56525 0.0 10111646
15:00+26sse674884 0.0 10111656
18:00+25ese66503 0.0 10101295
21:00+23se45583 0.0 1011361
15 june, tue
tue1500:00+21se226516 0.3 1012255
03:00+20nne45765 0.3 1011171
06:00+19nne46785 0.0 1011236
09:00+23ne67661 0.0 1011515
12:00+26ene67525 0.3 10101246
15:00+27ene5649100 0.3 10091419
18:00+22nne1169100 1.8 1009189
21:00+20nnw3482100 3.9 1009146
16 june, wed
wed1600:00+21ene1375100 3.1 1009308
03:00+20s128196 3.4 1009243
06:00+20ese1281100 0.8 1009184
09:00+22ese447688 2.0 1010472
12:00+24ene3363100 1.8 1010594
15:00+25s446097 2.9 1010500
18:00+24ese346498 2.1 1009568
21:00+20ne1280100 2.8 1011215
17 june, thu
thu1700:00+20ne33763 0.0 1011297
03:00+18n458849 0.0 1011226
06:00+20ne5689100 0.0 1012439
09:00+21ene7884100 0.1 1013619
12:00+23e6776100 0.1 1014994
15:00+23ene5576100 1.4 1014511
18:00+20sse2394100 18.8 1014267
21:00+22ese4678100 24.3 1015438
18 june, fri
fri1800:00+21ene7888100 0.8 1015522
03:00+21ene678789 2.8 1015496
06:00+21ene8988100 2.9 1016620
09:00+21ene8888100 4.9 1017796
12:00+21ene8982100 1.3 1018889
15:00+23e7874100 2.9 1018978
18:00+23e997731 2.3 1019896
21:00+23e10117290 4.2 1020880